Flag for Canada Weather past 2 weeks in Kamloops, British Columbia, Canada

Now
61 °F

Partly sunny.


Feels Like: 61 °F
Forecast: 49 / 63 °F
Wind: 17 mph from Southwest

Location: Kamloops

Current Time: Mar 29, 2015 at 7:51:33 PM

Latest Report: Mar 29, 2015 at 7:00 PM


Visibility: 40 mi

Pressure: 30.00 "Hg

Humidity: 36%

Dew point: 34 °F

Location of KamloopsLocation

Historic Weather in Kamloops — Graph

°F

Kamloops temperature yesterday

Maximum temperature yesterday: 64 °F (at 4:00 PM)
Minimum temperature yesterday: 52 °F (at 7:00 AM)
Average temperature yesterday: 57 °F

Past Weeks' High & Low Weather Summary

 TemperatureHumidityPressure
High72 °F (Mar 27, 5:00 PM)93% (Mar 20, 8:00 AM)30.42 "Hg (Mar 20, 8:00 AM)
Low30 °F (Mar 22, 6:00 AM)19% (Mar 16, 2:00 PM)29.68 "Hg (Mar 14, 6:00 PM)
Average48 °F59%30.04 "Hg
* Reported Mar 14 6:00 PM — Mar 29 6:00 PM, Kamloops, Weather by CustomWeather, © 2015

Note: Actual official high and low records may vary slightly from our data, if they occured in-between our weather recording intervals... More about our weather records

Advertising

Kamloops weather history for previous 24 hours

 ConditionsComfort  
Time TempWeatherWind HumidityBarometerVisibility
6:00 PM
Sun, Mar 29
64 °FPartly sunny.14 mph30%29.98 "Hg40 mi
5:00 PM64 °FPartly sunny.16 mph30%29.97 "Hg40 mi
4:00 PM64 °FPartly sunny.15 mph30%29.96 "Hg40 mi
3:00 PM66 °FPartly sunny.17 mph30%29.97 "Hg40 mi
2:00 PM63 °FPartly sunny.No wind34%29.98 "Hg40 mi
1:00 PM63 °FPartly sunny.2 mph37%29.98 "Hg40 mi
12:00 PM61 °FMostly cloudy.13 mph39%29.99 "Hg40 mi
11:00 AM59 °FMostly cloudy.13 mph42%30.02 "Hg40 mi
10:00 AM57 °FMostly cloudy.16 mph41%30.03 "Hg40 mi
9:00 AM57 °FBroken clouds.13 mph44%30.04 "Hg40 mi
8:00 AM54 °FBroken clouds.13 mph47%30.05 "Hg40 mi
7:00 AM54 °FPartly cloudy.2 mph47%30.06 "Hg40 mi
6:00 AM54 °FPartly cloudy.No wind47%30.08 "Hg40 mi
5:00 AM54 °FPartly cloudy.6 mph47%30.08 "Hg40 mi
4:00 AM52 °FPartly cloudy.2 mph50%30.11 "Hg40 mi
3:00 AM52 °FPassing clouds.6 mph50%30.12 "Hg40 mi
2:00 AM52 °FPartly cloudy.3 mph47%30.14 "Hg40 mi
1:00 AM52 °FPassing clouds.12 mph47%30.16 "Hg40 mi
12:00 AM52 °FPassing clouds.12 mph44%30.16 "Hg40 mi
11:00 PM
Sat, Mar 28
54 °FPassing clouds.No wind41%30.16 "Hg40 mi
10:00 PM54 °FPassing clouds.13 mph41%30.15 "Hg40 mi
9:00 PM54 °FPassing clouds.2 mph44%30.14 "Hg40 mi
8:00 PM57 °FBroken clouds.7 mph36%30.14 "Hg40 mi
7:00 PM57 °FBroken clouds.14 mph39%30.09 "Hg40 mi
Weather by CustomWeather, © 2015

See weather overviewHow to use our weather pages